THY2001 LTFM-SBGR

Flight info

Callsign THY2001
Flight time N/A
Altitude 28000
Route BARPE/N0483F300 UM603 SUTIS DCT RUTOM/N0492F290 DCT LORED/N0484F280 DCT BASMO UR783 MON/N0492F300 UR783 TBS UG864 BRENA/N0493F320 UA854 ARDAR UR975 ANITI UA302 TURUP DCT 05N024W/N0496F340 DCT KODOS UL206 DAGTA/N0488F360 UL206 VRI UN401 SIDUR UZ10 EDMUS
Aircraft B763/H-SDE3FGHIM3RWXY/LB1

Departure

Time N/A
Airport İstanbul Airport (LTFM)

Arrival

Time 2026-05-05 12:30
Airport São Paulo/Guarulhos–Governor André Franco Montoro International Airport (SBGR)
Time Latitude Longitude Altitude Speed Heading
2026-05-05 08:30 -0.60059 -27.34541 31946 ft 470 kts 211°
2026-05-05 08:30 -0.65581 -27.38008 31946 ft 469 kts 211°
2026-05-05 08:31 -0.71114 -27.41481 31946 ft 469 kts 211°
2026-05-05 08:31 -0.76656 -27.44959 31946 ft 468 kts 211°
2026-05-05 08:32 -0.82182 -27.48428 31946 ft 468 kts 211°
2026-05-05 08:32 -0.87720 -27.51903 31946 ft 469 kts 211°
2026-05-05 08:33 -0.93278 -27.55393 31950 ft 469 kts 211°
2026-05-05 08:33 -0.98778 -27.58846 31957 ft 470 kts 211°
2026-05-05 08:34 -1.04306 -27.62316 31960 ft 469 kts 211°
2026-05-05 08:34 -1.09874 -27.65811 31963 ft 468 kts 211°
2026-05-05 08:35 -1.15396 -27.69278 31968 ft 468 kts 211°
2026-05-05 08:35 -1.20916 -27.72744 31967 ft 468 kts 211°
2026-05-05 08:36 -1.26422 -27.76201 31968 ft 469 kts 211°
2026-05-05 08:36 -1.31971 -27.79686 31967 ft 469 kts 211°
2026-05-05 08:37 -1.37512 -27.83165 31967 ft 469 kts 211°
2026-05-05 08:37 -1.43057 -27.86647 31967 ft 469 kts 211°
2026-05-05 08:38 -1.48557 -27.90101 31967 ft 468 kts 211°
2026-05-05 08:38 -1.54070 -27.93564 31966 ft 467 kts 211°
2026-05-05 08:39 -1.59574 -27.97021 31966 ft 468 kts 211°
2026-05-05 08:39 -1.65113 -28.00501 31967 ft 468 kts 211°
2026-05-05 08:40 -1.70619 -28.03959 31967 ft 468 kts 211°
2026-05-05 08:40 -1.76163 -28.07442 31967 ft 470 kts 211°
2026-05-05 08:41 -1.81699 -28.10920 31964 ft 469 kts 211°
2026-05-05 08:41 -1.87231 -28.14395 31963 ft 467 kts 211°
2026-05-05 08:42 -1.92731 -28.17852 31963 ft 467 kts 211°
2026-05-05 08:42 -1.98251 -28.21321 31962 ft 468 kts 211°
2026-05-05 08:43 -2.03780 -28.24795 31964 ft 468 kts 211°
2026-05-05 08:43 -2.09329 -28.28283 31965 ft 470 kts 211°
2026-05-05 08:44 -2.14840 -28.31747 31967 ft 469 kts 211°
2026-05-05 08:44 -2.20387 -28.35233 31958 ft 470 kts 211°
2026-05-05 08:45 -2.25923 -28.38714 31960 ft 470 kts 211°
2026-05-05 08:45 -2.31464 -28.42198 31956 ft 470 kts 211°
2026-05-05 08:46 -2.37023 -28.45694 31953 ft 469 kts 211°
2026-05-05 08:46 -2.42551 -28.49170 31955 ft 468 kts 211°
2026-05-05 08:47 -2.48092 -28.52655 31953 ft 469 kts 211°
2026-05-05 08:47 -2.53612 -28.56126 31949 ft 470 kts 211°
2026-05-05 08:48 -2.59164 -28.59619 31946 ft 469 kts 211°
2026-05-05 08:48 -2.64684 -28.63091 31949 ft 470 kts 211°
2026-05-05 08:49 -2.70225 -28.66578 31946 ft 469 kts 211°
2026-05-05 08:49 -2.75785 -28.70077 31945 ft 470 kts 211°
2026-05-05 08:50 -2.81324 -28.73562 31944 ft 470 kts 211°
2026-05-05 08:50 -2.86833 -28.77030 31945 ft 468 kts 211°
2026-05-05 08:51 -2.92349 -28.80502 31945 ft 468 kts 211°
2026-05-05 08:51 -2.97890 -28.83989 31947 ft 470 kts 211°
2026-05-05 08:52 -3.03427 -28.87476 31943 ft 469 kts 211°
2026-05-05 08:52 -3.08943 -28.90948 31946 ft 469 kts 211°
2026-05-05 08:53 -3.14483 -28.94433 31950 ft 469 kts 212°
2026-05-05 08:53 -3.20014 -28.97914 31945 ft 468 kts 211°
2026-05-05 08:54 -3.25545 -29.01395 31947 ft 468 kts 212°
2026-05-05 08:54 -3.31065 -29.04869 31946 ft 467 kts 211°
2026-05-05 08:55 -3.36588 -29.08345 31953 ft 468 kts 212°
2026-05-05 08:55 -3.42081 -29.11803 31965 ft 468 kts 212°
2026-05-05 08:56 -3.47623 -29.15293 31966 ft 469 kts 212°
2026-05-05 08:56 -3.53167 -29.18785 31967 ft 470 kts 212°
2026-05-05 08:57 -3.58703 -29.22272 31966 ft 470 kts 212°
2026-05-05 08:57 -3.64276 -29.25783 31966 ft 470 kts 212°
2026-05-05 08:58 -3.69790 -29.29258 31965 ft 470 kts 212°
2026-05-05 08:58 -3.75316 -29.32742 31968 ft 469 kts 212°
2026-05-05 08:59 -3.80857 -29.36236 31967 ft 470 kts 212°
2026-05-05 08:59 -3.86427 -29.39748 31966 ft 471 kts 212°
2026-05-05 09:00 -3.91975 -29.43248 31966 ft 473 kts 212°
2026-05-05 09:00 -3.97560 -29.46771 31965 ft 472 kts 212°
2026-05-05 09:01 -4.03163 -29.50306 31968 ft 474 kts 212°
2026-05-05 09:01 -4.08739 -29.53825 31967 ft 473 kts 212°
2026-05-05 09:02 -4.14339 -29.57359 31969 ft 473 kts 212°
2026-05-05 09:02 -4.19887 -29.60861 31967 ft 472 kts 212°
2026-05-05 09:03 -4.25461 -29.64380 31967 ft 472 kts 212°
2026-05-05 09:03 -4.31052 -29.67911 31967 ft 472 kts 212°
2026-05-05 09:04 -4.36614 -29.71423 31968 ft 472 kts 212°
2026-05-05 09:04 -4.42187 -29.74944 31968 ft 472 kts 212°
2026-05-05 09:05 -4.47747 -29.78456 31958 ft 471 kts 212°
2026-05-05 09:05 -4.53301 -29.81966 31964 ft 472 kts 212°
2026-05-05 09:06 -4.58893 -29.85500 31967 ft 472 kts 212°
2026-05-05 09:06 -4.64445 -29.89010 31967 ft 474 kts 212°
2026-05-05 09:07 -4.70059 -29.92559 31967 ft 474 kts 213°
2026-05-05 09:07 -4.75675 -29.96111 31967 ft 475 kts 213°
2026-05-05 09:08 -4.81239 -29.99630 31967 ft 475 kts 213°
2026-05-05 09:08 -4.86191 -30.02763 31968 ft 477 kts 213°
2026-05-05 09:09 -4.91784 -30.06302 31967 ft 477 kts 213°
2026-05-05 09:09 -4.97433 -30.09877 31968 ft 476 kts 213°
2026-05-05 09:10 -5.03006 -30.13405 31968 ft 476 kts 213°
2026-05-05 09:10 -5.08640 -30.16972 31967 ft 475 kts 213°
2026-05-05 09:11 -5.14235 -30.20515 31967 ft 474 kts 213°
2026-05-05 09:11 -5.19850 -30.24072 31966 ft 475 kts 213°
2026-05-05 09:12 -5.25438 -30.27612 31966 ft 476 kts 213°
2026-05-05 09:12 -5.31066 -30.31178 31966 ft 477 kts 213°
2026-05-05 09:13 -5.36645 -30.34715 31966 ft 477 kts 213°
2026-05-05 09:13 -5.42311 -30.38306 31966 ft 477 kts 213°
2026-05-05 09:14 -5.47923 -30.41865 31966 ft 476 kts 213°
2026-05-05 09:14 -5.53545 -30.45430 31967 ft 478 kts 213°
2026-05-05 09:15 -5.59167 -30.48997 31967 ft 479 kts 213°
2026-05-05 09:15 -5.64806 -30.52575 31967 ft 479 kts 213°
2026-05-05 09:16 -5.70453 -30.56159 31967 ft 480 kts 213°
2026-05-05 09:16 -5.76095 -30.59741 31967 ft 481 kts 213°
2026-05-05 09:17 -5.81722 -30.63314 31966 ft 480 kts 213°
2026-05-05 09:17 -5.87393 -30.66916 31967 ft 480 kts 213°
2026-05-05 09:18 -5.93065 -30.70519 31968 ft 480 kts 213°
2026-05-05 09:18 -5.98713 -30.74107 31968 ft 481 kts 213°
2026-05-05 09:19 -6.04380 -30.77710 31972 ft 482 kts 213°
2026-05-05 09:19 -6.10051 -30.81316 31971 ft 482 kts 213°
2026-05-05 09:20 -6.15659 -30.84881 31970 ft 480 kts 213°
2026-05-05 09:20 -6.21326 -30.88485 31974 ft 481 kts 213°
2026-05-05 09:21 -6.27011 -30.92103 31974 ft 481 kts 213°
2026-05-05 09:21 -6.32688 -30.95715 31976 ft 481 kts 213°
2026-05-05 09:22 -6.38366 -30.99331 31974 ft 481 kts 213°
2026-05-05 09:22 -6.43991 -31.02912 31976 ft 480 kts 213°
2026-05-05 09:23 -6.49672 -31.06530 31978 ft 479 kts 213°
2026-05-05 09:23 -6.55318 -31.10127 31980 ft 480 kts 213°
2026-05-05 09:24 -6.60959 -31.13722 31979 ft 480 kts 213°
2026-05-05 09:24 -6.66625 -31.17334 31979 ft 479 kts 214°
2026-05-05 09:25 -6.72239 -31.20913 31985 ft 479 kts 214°
2026-05-05 09:25 -6.77908 -31.24529 31986 ft 480 kts 214°
2026-05-05 09:26 -6.83549 -31.28128 31987 ft 479 kts 214°
2026-05-05 09:26 -6.89190 -31.31727 31988 ft 478 kts 214°
2026-05-05 09:27 -6.94816 -31.35319 31989 ft 478 kts 214°
2026-05-05 09:27 -7.00427 -31.38902 31991 ft 480 kts 214°
2026-05-05 09:28 -7.06102 -31.42526 31989 ft 480 kts 214°
2026-05-05 09:28 -7.11737 -31.46127 31989 ft 479 kts 214°
2026-05-05 09:29 -7.17378 -31.49731 31988 ft 479 kts 214°
2026-05-05 09:29 -7.23019 -31.53338 31990 ft 479 kts 214°
2026-05-05 09:30 -7.28653 -31.56941 31994 ft 479 kts 214°
2026-05-05 09:30 -7.34297 -31.60551 31993 ft 480 kts 214°
2026-05-05 09:31 -7.39962 -31.64175 31991 ft 480 kts 214°
2026-05-05 09:31 -7.45587 -31.67776 31992 ft 479 kts 214°
2026-05-05 09:32 -7.51257 -31.71406 31997 ft 479 kts 214°
2026-05-05 09:32 -7.56862 -31.74995 31995 ft 479 kts 214°
2026-05-05 09:33 -7.62522 -31.78622 31997 ft 480 kts 214°
2026-05-05 09:33 -7.68170 -31.82241 32000 ft 480 kts 214°
2026-05-05 09:34 -7.73817 -31.85861 32000 ft 480 kts 214°
2026-05-05 09:34 -7.79446 -31.89471 32004 ft 480 kts 214°
2026-05-05 09:35 -7.85102 -31.93099 32007 ft 479 kts 214°
2026-05-05 09:35 -7.93542 -31.98515 32005 ft 477 kts 214°
2026-05-05 09:36 -7.99177 -32.02133 31997 ft 478 kts 214°
2026-05-05 09:36 -8.04802 -32.05746 31990 ft 478 kts 215°
2026-05-05 09:37 -8.10426 -32.09359 31993 ft 478 kts 214°
2026-05-05 09:37 -8.16019 -32.12954 31995 ft 477 kts 214°
2026-05-05 09:38 -8.21639 -32.16565 31994 ft 477 kts 214°
2026-05-05 09:38 -8.27234 -32.20164 31998 ft 477 kts 214°
2026-05-05 09:39 -8.32835 -32.23766 31998 ft 476 kts 214°
2026-05-05 09:39 -8.38427 -32.27365 32009 ft 475 kts 214°
2026-05-05 09:40 -8.44044 -32.30981 32005 ft 475 kts 214°
2026-05-05 09:40 -8.49605 -32.34562 32006 ft 475 kts 214°
2026-05-05 09:41 -8.55203 -32.38168 32003 ft 475 kts 214°
2026-05-05 09:41 -8.60779 -32.41762 32003 ft 475 kts 214°
2026-05-05 09:42 -8.66370 -32.45365 32005 ft 475 kts 214°
2026-05-05 09:42 -8.71928 -32.48950 32009 ft 473 kts 214°
2026-05-05 09:43 -8.77519 -32.52543 32010 ft 472 kts 214°
2026-05-05 09:43 -8.83067 -32.56091 32013 ft 472 kts 214°
2026-05-05 09:44 -8.88643 -32.59659 32014 ft 472 kts 214°
2026-05-05 09:44 -8.94227 -32.63232 32023 ft 471 kts 214°
2026-05-05 09:45 -8.99539 -32.66633 32023 ft 472 kts 214°
2026-05-05 09:45 -9.05263 -32.70300 32019 ft 470 kts 214°
2026-05-05 09:46 -9.10779 -32.73834 32016 ft 471 kts 214°
2026-05-05 09:46 -9.16344 -32.77401 32010 ft 471 kts 214°
2026-05-05 09:47 -9.21889 -32.80957 32020 ft 471 kts 214°
2026-05-05 09:47 -9.27448 -32.84523 32023 ft 473 kts 214°
2026-05-05 09:48 -9.32999 -32.88084 32019 ft 471 kts 214°
2026-05-05 09:48 -9.38518 -32.91627 32018 ft 471 kts 214°
2026-05-05 09:49 -9.44064 -32.95190 32019 ft 470 kts 214°
2026-05-05 09:49 -9.49587 -32.98737 32016 ft 470 kts 214°
2026-05-05 09:50 -9.55143 -33.02308 32019 ft 470 kts 214°
2026-05-05 09:50 -9.60684 -33.05870 32022 ft 470 kts 214°
2026-05-05 09:51 -9.66198 -33.09417 32024 ft 470 kts 214°
2026-05-05 09:51 -9.71726 -33.12974 32025 ft 471 kts 214°
2026-05-05 09:52 -9.77268 -33.16542 32024 ft 470 kts 214°
2026-05-05 09:52 -9.82804 -33.20106 32025 ft 471 kts 214°
2026-05-05 09:53 -9.88362 -33.23687 32027 ft 472 kts 214°
2026-05-05 09:53 -9.93938 -33.27281 32028 ft 472 kts 213°
2026-05-05 09:54 -9.99471 -33.30848 32028 ft 471 kts 213°
2026-05-05 09:54 -10.04028 -33.33787 32029 ft 471 kts 214°
2026-05-05 09:55 -10.08932 -33.36951 32029 ft 471 kts 214°
2026-05-05 09:55 -10.14456 -33.40517 32029 ft 471 kts 214°
2026-05-05 09:56 -10.20028 -33.44115 32031 ft 471 kts 214°
2026-05-05 09:56 -10.25555 -33.47686 32033 ft 471 kts 214°
2026-05-05 09:57 -10.31094 -33.51265 32035 ft 471 kts 214°
2026-05-05 09:57 -10.36606 -33.54829 32034 ft 471 kts 214°
2026-05-05 09:58 -10.42157 -33.58419 32035 ft 471 kts 214°
2026-05-05 09:58 -10.47723 -33.62022 32037 ft 471 kts 214°
2026-05-05 09:59 -10.53137 -33.65527 32037 ft 472 kts 214°
2026-05-05 09:59 -10.58633 -33.69086 32038 ft 472 kts 214°
2026-05-05 10:00 -10.64166 -33.72670 32038 ft 471 kts 214°
2026-05-05 10:00 -10.69669 -33.76238 32039 ft 471 kts 214°
2026-05-05 10:01 -10.75256 -33.79861 32042 ft 471 kts 214°
2026-05-05 10:01 -10.80775 -33.83441 32047 ft 471 kts 214°
2026-05-05 10:02 -10.86286 -33.87019 32048 ft 471 kts 214°
2026-05-05 10:02 -10.91845 -33.90628 32048 ft 471 kts 214°
2026-05-05 10:03 -10.97391 -33.94231 32048 ft 471 kts 214°
2026-05-05 10:03 -11.02926 -33.97828 32050 ft 471 kts 214°
2026-05-05 10:04 -11.08473 -34.01436 32050 ft 472 kts 214°
2026-05-05 10:04 -11.14028 -34.05050 32050 ft 473 kts 214°
2026-05-05 10:05 -11.19571 -34.08657 32048 ft 471 kts 214°
2026-05-05 10:05 -11.25064 -34.12234 32050 ft 470 kts 214°
2026-05-05 10:06 -11.30590 -34.15833 32050 ft 470 kts 214°
2026-05-05 10:06 -11.36107 -34.19429 32049 ft 471 kts 214°
2026-05-05 10:07 -11.41654 -34.23046 32048 ft 471 kts 214°
2026-05-05 10:07 -11.47195 -34.26661 32050 ft 473 kts 214°
2026-05-05 10:08 -11.52717 -34.30265 32050 ft 471 kts 214°
2026-05-05 10:08 -11.58229 -34.33863 32048 ft 470 kts 214°
2026-05-05 10:09 -11.63774 -34.37486 32048 ft 470 kts 214°
2026-05-05 10:09 -11.69291 -34.41092 32048 ft 470 kts 214°
2026-05-05 10:10 -11.74809 -34.44701 32047 ft 471 kts 214°
2026-05-05 10:10 -11.80304 -34.48296 32051 ft 472 kts 214°
2026-05-05 10:11 -11.85858 -34.51931 32050 ft 471 kts 214°
2026-05-05 10:11 -11.91388 -34.55552 32050 ft 471 kts 214°
2026-05-05 10:12 -11.96887 -34.59155 32051 ft 471 kts 214°
2026-05-05 10:12 -12.02397 -34.62766 32051 ft 471 kts 214°
2026-05-05 10:13 -12.07887 -34.66367 32050 ft 470 kts 214°
2026-05-05 10:13 -12.13400 -34.69985 32052 ft 471 kts 214°
2026-05-05 10:14 -12.18926 -34.73612 32052 ft 471 kts 214°
2026-05-05 10:14 -12.24467 -34.77252 32051 ft 472 kts 214°
2026-05-05 10:15 -12.30001 -34.80888 32052 ft 472 kts 214°
2026-05-05 10:15 -12.35545 -34.84533 32050 ft 470 kts 214°
2026-05-05 10:16 -12.41041 -34.88148 32051 ft 471 kts 214°
2026-05-05 10:16 -12.46559 -34.91781 32051 ft 471 kts 214°
2026-05-05 10:17 -12.52054 -34.95399 32049 ft 471 kts 214°
2026-05-05 10:17 -12.57591 -34.99047 32050 ft 471 kts 214°
2026-05-05 10:18 -12.63126 -35.02695 32050 ft 471 kts 214°
2026-05-05 10:18 -12.68629 -35.06324 32050 ft 471 kts 214°
2026-05-05 10:19 -12.74166 -35.09978 32049 ft 471 kts 214°
2026-05-05 10:19 -12.79650 -35.13598 32051 ft 471 kts 214°
2026-05-05 10:20 -12.85197 -35.17262 32057 ft 471 kts 215°
2026-05-05 10:20 -12.90258 -35.20608 32065 ft 472 kts 214°
2026-05-05 10:21 -12.95800 -35.24272 32068 ft 472 kts 214°
2026-05-05 10:21 -13.01301 -35.27911 32067 ft 472 kts 215°
2026-05-05 10:22 -13.06828 -35.31570 32071 ft 471 kts 215°
2026-05-05 10:22 -13.12356 -35.35231 32069 ft 470 kts 215°
2026-05-05 10:23 -13.17910 -35.38911 32067 ft 471 kts 215°
2026-05-05 10:23 -13.23434 -35.42573 32068 ft 471 kts 215°
2026-05-05 10:24 -13.28938 -35.46225 32075 ft 471 kts 215°
2026-05-05 10:24 -13.34450 -35.49884 32072 ft 471 kts 215°
2026-05-05 10:25 -13.39969 -35.53548 32070 ft 471 kts 215°
2026-05-05 10:25 -13.45480 -35.57210 32074 ft 470 kts 215°
2026-05-05 10:26 -13.50973 -35.60863 32068 ft 471 kts 215°
2026-05-05 10:26 -13.56521 -35.64554 32064 ft 472 kts 215°
2026-05-05 10:27 -13.61996 -35.68197 32079 ft 472 kts 216°
2026-05-05 10:27 -13.67530 -35.71883 32072 ft 472 kts 216°
2026-05-05 10:28 -13.73012 -35.75536 32075 ft 471 kts 215°
2026-05-05 10:28 -13.78537 -35.79219 32075 ft 470 kts 216°
2026-05-05 10:29 -13.84066 -35.82908 32073 ft 471 kts 216°
2026-05-05 10:29 -13.89583 -35.86591 32076 ft 473 kts 216°
2026-05-05 10:30 -13.95106 -35.90279 32075 ft 472 kts 216°
2026-05-05 10:30 -14.00640 -35.93977 32078 ft 473 kts 216°
2026-05-05 10:31 -14.06156 -35.97665 32075 ft 473 kts 216°
2026-05-05 10:31 -14.11706 -36.01379 32077 ft 472 kts 216°
2026-05-05 10:32 -14.17221 -36.05071 32073 ft 471 kts 216°
2026-05-05 10:32 -14.22721 -36.08755 32075 ft 471 kts 216°
2026-05-05 10:33 -14.28227 -36.12445 32078 ft 471 kts 216°
2026-05-05 10:33 -14.33772 -36.16164 32079 ft 472 kts 216°
2026-05-05 10:34 -14.39270 -36.19853 32079 ft 472 kts 216°
2026-05-05 10:34 -14.44782 -36.23553 32078 ft 471 kts 216°
2026-05-05 10:35 -14.50254 -36.27230 32082 ft 471 kts 216°
2026-05-05 10:35 -14.55755 -36.30928 32083 ft 470 kts 216°
2026-05-05 10:36 -14.61255 -36.34627 32082 ft 470 kts 216°
2026-05-05 10:36 -14.66751 -36.38326 32088 ft 471 kts 216°
2026-05-05 10:37 -14.72238 -36.42022 32086 ft 470 kts 216°
2026-05-05 10:37 -14.77739 -36.45728 32087 ft 471 kts 216°
2026-05-05 10:38 -14.83228 -36.49429 32093 ft 470 kts 216°
2026-05-05 10:38 -14.88692 -36.53116 32092 ft 470 kts 216°
2026-05-05 10:39 -14.94213 -36.56843 32092 ft 469 kts 216°
2026-05-05 10:39 -14.99678 -36.60536 32091 ft 469 kts 216°
2026-05-05 10:40 -15.05179 -36.64253 32092 ft 469 kts 216°
2026-05-05 10:40 -15.10556 -36.67889 32098 ft 467 kts 217°
2026-05-05 10:41 -15.16020 -36.71589 32097 ft 468 kts 217°
2026-05-05 10:41 -15.21495 -36.75296 32097 ft 468 kts 217°
2026-05-05 10:42 -15.29706 -36.80861 32103 ft 468 kts 217°
2026-05-05 10:43 -15.35154 -36.84557 32099 ft 468 kts 217°
2026-05-05 10:43 -15.40606 -36.88257 32102 ft 467 kts 217°
2026-05-05 10:44 -15.46075 -36.91971 32100 ft 466 kts 217°
2026-05-05 10:44 -15.51535 -36.95681 32102 ft 467 kts 217°
2026-05-05 10:45 -15.56997 -36.99396 32104 ft 466 kts 217°
2026-05-05 10:45 -15.62433 -37.03095 32104 ft 466 kts 217°
2026-05-05 10:46 -15.67859 -37.06789 32108 ft 466 kts 217°
2026-05-05 10:46 -15.73292 -37.10491 32106 ft 466 kts 217°
2026-05-05 10:47 -15.78756 -37.14216 32111 ft 466 kts 217°
2026-05-05 10:47 -15.84165 -37.17906 32115 ft 464 kts 217°
2026-05-05 10:48 -15.89603 -37.21619 32114 ft 464 kts 217°
2026-05-05 10:48 -15.95017 -37.25317 32115 ft 466 kts 217°
2026-05-05 10:49 -16.00449 -37.29030 32121 ft 465 kts 217°
2026-05-05 10:49 -16.05859 -37.32731 32118 ft 465 kts 217°
2026-05-05 10:50 -16.11283 -37.36443 32116 ft 464 kts 217°
2026-05-05 10:50 -16.16682 -37.40142 32118 ft 463 kts 217°
2026-05-05 10:51 -16.22046 -37.43818 32121 ft 462 kts 217°
2026-05-05 10:51 -16.27465 -37.47535 32122 ft 463 kts 217°
2026-05-05 10:52 -16.32854 -37.51233 32120 ft 463 kts 217°
2026-05-05 10:52 -16.38246 -37.54936 32123 ft 463 kts 217°
2026-05-05 10:53 -16.43646 -37.58647 32121 ft 462 kts 217°
2026-05-05 10:53 -16.49041 -37.62357 32124 ft 462 kts 217°
2026-05-05 10:54 -16.54321 -37.65991 32132 ft 462 kts 217°
2026-05-05 10:54 -16.59749 -37.69728 32134 ft 462 kts 217°
2026-05-05 10:55 -16.65151 -37.73450 32132 ft 461 kts 218°
2026-05-05 10:55 -16.70497 -37.77137 32135 ft 461 kts 218°
2026-05-05 10:56 -16.75851 -37.80832 32135 ft 460 kts 217°
2026-05-05 10:56 -16.81236 -37.84550 32135 ft 460 kts 217°
2026-05-05 10:57 -16.86630 -37.88277 32134 ft 460 kts 217°
2026-05-05 10:57 -16.91994 -37.91986 32134 ft 461 kts 218°
2026-05-05 10:58 -16.97348 -37.95690 32134 ft 460 kts 217°
2026-05-05 10:58 -17.02693 -37.99392 32131 ft 459 kts 218°
2026-05-05 10:59 -17.08070 -38.03118 32133 ft 460 kts 218°
2026-05-05 10:59 -17.13422 -38.06828 32132 ft 460 kts 217°
2026-05-05 11:00 -17.18783 -38.10548 32133 ft 459 kts 218°
2026-05-05 11:00 -17.24134 -38.14264 32136 ft 460 kts 218°
2026-05-05 11:01 -17.29508 -38.17997 32132 ft 458 kts 218°
2026-05-05 11:01 -17.34892 -38.21742 32130 ft 458 kts 218°
2026-05-05 11:02 -17.40211 -38.25443 32134 ft 458 kts 218°
2026-05-05 11:02 -17.45536 -38.29150 32132 ft 458 kts 218°
2026-05-05 11:03 -17.50870 -38.32868 32134 ft 457 kts 218°
2026-05-05 11:03 -17.56169 -38.36563 32135 ft 457 kts 218°
2026-05-05 11:04 -17.61486 -38.40274 32135 ft 457 kts 218°
2026-05-05 11:04 -17.66813 -38.43993 32134 ft 457 kts 218°
2026-05-05 11:05 -17.72152 -38.47726 32137 ft 457 kts 218°
2026-05-05 11:05 -17.77489 -38.51457 32137 ft 457 kts 218°
2026-05-05 11:06 -17.82803 -38.55177 32139 ft 456 kts 217°
2026-05-05 11:06 -17.88102 -38.58888 32139 ft 456 kts 217°
2026-05-05 11:07 -17.93388 -38.62592 32140 ft 456 kts 218°
2026-05-05 11:07 -17.98690 -38.66311 32150 ft 455 kts 218°
2026-05-05 11:08 -18.03995 -38.70035 32154 ft 455 kts 218°
2026-05-05 11:08 -18.09285 -38.73750 32151 ft 454 kts 218°
2026-05-05 11:09 -18.14495 -38.77413 32153 ft 453 kts 218°
2026-05-05 11:09 -18.19768 -38.81123 32158 ft 454 kts 218°
2026-05-05 11:10 -18.25033 -38.84829 32155 ft 453 kts 218°
2026-05-05 11:10 -18.30270 -38.88519 32160 ft 453 kts 218°
2026-05-05 11:11 -18.35481 -38.92193 32161 ft 453 kts 218°
2026-05-05 11:11 -18.40749 -38.95910 32163 ft 453 kts 218°
2026-05-05 11:12 -18.46021 -38.99632 32162 ft 453 kts 218°
2026-05-05 11:12 -18.51261 -39.03334 32164 ft 453 kts 218°
2026-05-05 11:13 -18.56486 -39.07029 32164 ft 451 kts 218°
2026-05-05 11:13 -18.61707 -39.10724 32171 ft 451 kts 218°
2026-05-05 11:14 -18.66946 -39.14434 32167 ft 451 kts 218°
2026-05-05 11:14 -18.72174 -39.18140 32170 ft 452 kts 218°
2026-05-05 11:15 -18.77438 -39.21873 32167 ft 451 kts 218°
2026-05-05 11:15 -18.82672 -39.25589 32162 ft 452 kts 218°
2026-05-05 11:16 -18.87891 -39.29296 32161 ft 450 kts 218°
2026-05-05 11:16 -18.93114 -39.33009 32160 ft 450 kts 218°
2026-05-05 11:17 -18.98322 -39.36714 32170 ft 449 kts 218°
2026-05-05 11:17 -19.03516 -39.40412 32176 ft 449 kts 218°
2026-05-05 11:18 -19.08697 -39.44104 32178 ft 449 kts 218°
2026-05-05 11:18 -19.13770 -39.47721 32181 ft 448 kts 218°
2026-05-05 11:19 -19.19004 -39.51456 32184 ft 448 kts 218°
2026-05-05 11:19 -19.24208 -39.55173 32183 ft 448 kts 218°
2026-05-05 11:20 -19.29410 -39.58892 32185 ft 447 kts 218°
2026-05-05 11:20 -19.34623 -39.62620 32191 ft 448 kts 218°
2026-05-05 11:21 -19.39636 -39.66208 32198 ft 448 kts 218°
2026-05-05 11:21 -19.44960 -39.70023 32202 ft 448 kts 218°
2026-05-05 11:22 -19.50186 -39.73770 32200 ft 447 kts 218°
2026-05-05 11:22 -19.55387 -39.77502 32200 ft 448 kts 218°
2026-05-05 11:23 -19.60570 -39.81224 32203 ft 448 kts 218°
2026-05-05 11:23 -19.65776 -39.84965 32204 ft 448 kts 218°
2026-05-05 11:24 -19.70962 -39.88696 32209 ft 448 kts 218°
2026-05-05 11:24 -19.76150 -39.92429 32208 ft 449 kts 218°
2026-05-05 11:25 -19.81358 -39.96182 32213 ft 448 kts 218°
2026-05-05 11:25 -19.86494 -39.99885 32211 ft 449 kts 217°
2026-05-05 11:26 -19.91672 -40.03621 32211 ft 448 kts 217°
2026-05-05 11:26 -19.96866 -40.07373 32216 ft 448 kts 217°
2026-05-05 11:27 -20.02065 -40.11129 32218 ft 449 kts 217°
2026-05-05 11:27 -20.07234 -40.14868 32218 ft 449 kts 217°
2026-05-05 11:28 -20.12336 -40.18562 32220 ft 449 kts 217°
2026-05-05 11:28 -20.17511 -40.22311 32219 ft 451 kts 217°
2026-05-05 11:29 -20.22709 -40.26080 32216 ft 449 kts 217°
2026-05-05 11:29 -20.27399 -40.30397 32230 ft 445 kts 230°
2026-05-05 11:30 -20.31546 -40.35337 32223 ft 446 kts 230°
2026-05-05 11:30 -20.35636 -40.40308 32228 ft 445 kts 231°
2026-05-05 11:31 -20.39721 -40.45315 32229 ft 447 kts 231°
2026-05-05 11:31 -20.43787 -40.50314 32237 ft 446 kts 231°
2026-05-05 11:32 -20.47876 -40.55350 32236 ft 447 kts 231°
2026-05-05 11:32 -20.51933 -40.60352 32243 ft 446 kts 230°
2026-05-05 11:33 -20.55999 -40.65369 32251 ft 446 kts 231°
2026-05-05 11:33 -20.60077 -40.70406 32259 ft 446 kts 231°
2026-05-05 11:34 -20.64138 -40.75426 32258 ft 446 kts 231°
2026-05-05 11:34 -20.68182 -40.80430 32261 ft 446 kts 231°
2026-05-05 11:35 -20.72309 -40.85416 32255 ft 447 kts 230°
2026-05-05 11:35 -20.76453 -40.90364 32250 ft 446 kts 230°
2026-05-05 11:36 -20.80587 -40.95306 32246 ft 448 kts 230°
2026-05-05 11:36 -20.84765 -41.00305 32246 ft 448 kts 230°
2026-05-05 11:37 -20.88911 -41.05271 32236 ft 448 kts 229°
2026-05-05 11:37 -20.93054 -41.10237 32245 ft 447 kts 229°
2026-05-05 11:38 -20.97200 -41.15212 32244 ft 448 kts 229°
2026-05-05 11:38 -21.01311 -41.20150 32254 ft 448 kts 229°
2026-05-05 11:39 -21.05461 -41.25138 32262 ft 448 kts 229°
2026-05-05 11:39 -21.09608 -41.30129 32262 ft 448 kts 229°
2026-05-05 11:40 -21.13707 -41.35065 32261 ft 449 kts 229°
2026-05-05 11:40 -21.17863 -41.40074 32253 ft 449 kts 229°
2026-05-05 11:41 -21.21999 -41.45064 32245 ft 449 kts 229°
2026-05-05 11:41 -21.26134 -41.50058 32239 ft 448 kts 229°
2026-05-05 11:42 -21.30288 -41.55079 32239 ft 449 kts 229°
2026-05-05 11:42 -21.34440 -41.60106 32236 ft 448 kts 229°
2026-05-05 11:43 -21.38551 -41.65087 32235 ft 449 kts 229°
2026-05-05 11:43 -21.42678 -41.70095 32244 ft 449 kts 229°
2026-05-05 11:44 -21.46827 -41.75131 32240 ft 449 kts 229°
2026-05-05 11:44 -21.50968 -41.80163 32246 ft 450 kts 229°
2026-05-05 11:45 -21.55098 -41.85187 32249 ft 450 kts 229°
2026-05-05 11:45 -21.59240 -41.90231 32259 ft 449 kts 229°
2026-05-05 11:46 -21.63369 -41.95263 32258 ft 450 kts 229°
2026-05-05 11:46 -21.67517 -42.00323 32253 ft 450 kts 229°
2026-05-05 11:47 -21.71631 -42.05345 32241 ft 449 kts 229°
2026-05-05 11:47 -21.75783 -42.10420 32231 ft 450 kts 229°
2026-05-05 11:48 -21.81962 -42.17980 32238 ft 451 kts 229°
2026-05-05 11:48 -21.85371 -42.23667 32247 ft 452 kts 243°
2026-05-05 11:49 -21.88175 -42.29696 32241 ft 452 kts 243°
2026-05-05 11:49 -21.90964 -42.35777 32247 ft 452 kts 243°
2026-05-05 11:50 -21.93747 -42.41884 32251 ft 452 kts 243°
2026-05-05 11:50 -21.96521 -42.47982 32260 ft 452 kts 243°
2026-05-05 11:51 -21.99297 -42.54098 32261 ft 453 kts 243°
2026-05-05 11:51 -22.02054 -42.60178 32264 ft 452 kts 243°
2026-05-05 11:52 -22.04759 -42.66152 32270 ft 453 kts 243°
2026-05-05 11:52 -22.07567 -42.72301 32277 ft 453 kts 243°
2026-05-05 11:53 -22.10339 -42.78319 32285 ft 452 kts 243°
2026-05-05 11:53 -22.13152 -42.84431 32291 ft 452 kts 243°
2026-05-05 11:54 -22.15959 -42.90541 32303 ft 453 kts 243°
2026-05-05 11:54 -22.18758 -42.96637 32307 ft 453 kts 243°
2026-05-05 11:55 -22.21553 -43.02733 32317 ft 453 kts 243°
2026-05-05 11:55 -22.24341 -43.08823 32303 ft 453 kts 243°
2026-05-05 11:56 -22.27144 -43.14952 32291 ft 453 kts 243°
2026-05-05 11:56 -22.29929 -43.21048 32278 ft 452 kts 243°
2026-05-05 11:57 -22.32705 -43.27134 32276 ft 452 kts 243°
2026-05-05 11:57 -22.35477 -43.33218 32260 ft 452 kts 243°
2026-05-05 11:58 -22.38255 -43.39321 32257 ft 452 kts 243°
2026-05-05 11:58 -22.41020 -43.45403 32249 ft 452 kts 243°
2026-05-05 11:59 -22.43788 -43.51500 32243 ft 451 kts 243°
2026-05-05 11:59 -22.46563 -43.57619 32245 ft 452 kts 243°
2026-05-05 12:00 -22.49345 -43.63763 32249 ft 453 kts 243°
2026-05-05 12:00 -22.52023 -43.69684 32254 ft 453 kts 243°
2026-05-05 12:01 -22.54796 -43.75820 32252 ft 451 kts 243°
2026-05-05 12:01 -22.57541 -43.81906 32247 ft 451 kts 243°
2026-05-05 12:02 -22.60301 -43.88030 32243 ft 451 kts 243°
2026-05-05 12:02 -22.63042 -43.94119 32230 ft 451 kts 243°
2026-05-05 12:03 -22.65793 -44.00238 32239 ft 450 kts 243°
2026-05-05 12:03 -22.68520 -44.06311 32257 ft 447 kts 243°
2026-05-05 12:04 -22.71233 -44.12363 32273 ft 445 kts 243°
2026-05-05 12:04 -22.72589 -44.15388 32099 ft 449 kts 243°
2026-05-05 12:04 -22.73952 -44.18432 31650 ft 452 kts 243°
2026-05-05 12:05 -22.75318 -44.21489 31099 ft 451 kts 243°
2026-05-05 12:05 -22.76554 -44.24647 30509 ft 450 kts 247°
2026-05-05 12:05 -22.77724 -44.27777 30052 ft 449 kts 246°
2026-05-05 12:05 -22.78900 -44.30921 29589 ft 453 kts 246°
2026-05-05 12:06 -22.80097 -44.34108 29119 ft 454 kts 246°
2026-05-05 12:06 -22.81276 -44.37250 28656 ft 451 kts 246°
2026-05-05 12:06 -22.82467 -44.40424 28189 ft 448 kts 246°
2026-05-05 12:06 -22.83642 -44.43555 27730 ft 446 kts 246°
2026-05-05 12:07 -22.84809 -44.46667 27278 ft 445 kts 246°
2026-05-05 12:07 -22.85978 -44.49784 26827 ft 444 kts 246°
2026-05-05 12:07 -22.87135 -44.52873 26379 ft 442 kts 246°
2026-05-05 12:07 -22.88284 -44.55944 25937 ft 440 kts 246°
2026-05-05 12:08 -22.89431 -44.59009 25498 ft 439 kts 245°
2026-05-05 12:08 -22.90587 -44.62101 25056 ft 437 kts 245°
2026-05-05 12:08 -22.91671 -44.65001 24647 ft 436 kts 245°
2026-05-05 12:08 -22.92845 -44.68145 24206 ft 434 kts 246°
2026-05-05 12:09 -22.93985 -44.71200 23778 ft 432 kts 246°
2026-05-05 12:09 -22.95107 -44.74210 23362 ft 431 kts 245°
2026-05-05 12:09 -22.96229 -44.77221 22945 ft 429 kts 245°
2026-05-05 12:09 -22.97338 -44.80199 22542 ft 427 kts 245°
2026-05-05 12:10 -22.98453 -44.83194 22147 ft 425 kts 246°
2026-05-05 12:10 -22.99544 -44.86128 21752 ft 422 kts 246°
2026-05-05 12:10 -23.00638 -44.89072 21353 ft 419 kts 246°
2026-05-05 12:10 -23.01728 -44.92006 20952 ft 417 kts 246°
2026-05-05 12:11 -23.02802 -44.94899 20553 ft 415 kts 246°
2026-05-05 12:11 -23.03882 -44.97810 20150 ft 413 kts 246°
2026-05-05 12:11 -23.04950 -45.00691 19750 ft 411 kts 246°
2026-05-05 12:11 -23.06016 -45.03570 19353 ft 408 kts 246°
2026-05-05 12:12 -23.07070 -45.06415 18955 ft 406 kts 246°
2026-05-05 12:12 -23.08107 -45.09219 18561 ft 403 kts 247°
2026-05-05 12:12 -23.09158 -45.12061 18162 ft 401 kts 247°
2026-05-05 12:12 -23.10128 -45.14686 17791 ft 398 kts 247°
2026-05-05 12:13 -23.11163 -45.17490 17393 ft 395 kts 247°
2026-05-05 12:13 -23.12178 -45.20242 17004 ft 393 kts 247°
2026-05-05 12:13 -23.13175 -45.22944 16619 ft 391 kts 247°
2026-05-05 12:13 -23.14184 -45.25682 16219 ft 389 kts 247°
2026-05-05 12:14 -23.15188 -45.28407 15812 ft 387 kts 247°
2026-05-05 12:14 -23.16170 -45.31076 15421 ft 385 kts 247°
2026-05-05 12:14 -23.17170 -45.33793 15005 ft 383 kts 247°
2026-05-05 12:14 -23.18153 -45.36468 14613 ft 381 kts 247°
2026-05-05 12:15 -23.19045 -45.39167 14217 ft 379 kts 254°
2026-05-05 12:15 -23.19649 -45.41948 13878 ft 378 kts 255°
2026-05-05 12:15 -23.20287 -45.44736 13487 ft 378 kts 255°
2026-05-05 12:15 -23.20898 -45.47489 13132 ft 376 kts 255°
2026-05-05 12:16 -23.21516 -45.50269 12705 ft 374 kts 255°
2026-05-05 12:16 -23.21941 -45.53005 12427 ft 369 kts 263°
2026-05-05 12:16 -23.22378 -45.55763 12134 ft 370 kts 252°
2026-05-05 12:16 -23.23125 -45.58445 11814 ft 371 kts 254°
2026-05-05 12:17 -23.23763 -45.61153 11476 ft 368 kts 254°
2026-05-05 12:17 -23.24385 -45.63839 11124 ft 365 kts 255°
2026-05-05 12:17 -23.24954 -45.66378 10808 ft 364 kts 255°
2026-05-05 12:17 -23.25544 -45.69040 10463 ft 359 kts 256°
2026-05-05 12:18 -23.26114 -45.71634 10150 ft 349 kts 256°
2026-05-05 12:18 -23.26671 -45.74176 9843 ft 339 kts 256°
2026-05-05 12:18 -23.27210 -45.76648 9565 ft 329 kts 256°
2026-05-05 12:18 -23.27729 -45.79027 9314 ft 320 kts 256°
2026-05-05 12:19 -23.28234 -45.81348 9085 ft 311 kts 256°
2026-05-05 12:19 -23.28726 -45.83610 8877 ft 303 kts 256°
2026-05-05 12:19 -23.29206 -45.85815 8687 ft 294 kts 256°
2026-05-05 12:19 -23.29667 -45.87941 8514 ft 287 kts 256°
2026-05-05 12:20 -23.29919 -45.90045 8354 ft 279 kts 268°
2026-05-05 12:20 -23.30020 -45.92126 8247 ft 269 kts 264°
2026-05-05 12:20 -23.30214 -45.94109 8151 ft 260 kts 262°
2026-05-05 12:20 -23.30459 -45.96014 8057 ft 249 kts 260°
2026-05-05 12:21 -23.30745 -45.97846 7960 ft 242 kts 258°
2026-05-05 12:21 -23.31062 -45.99622 7854 ft 235 kts 257°
2026-05-05 12:21 -23.31399 -46.01336 7773 ft 231 kts 256°
2026-05-05 12:21 -23.31763 -46.03051 7746 ft 230 kts 256°
2026-05-05 12:22 -23.32139 -46.04721 7797 ft 227 kts 255°
2026-05-05 12:22 -23.32528 -46.06375 7779 ft 226 kts 255°
2026-05-05 12:22 -23.32936 -46.08055 7739 ft 228 kts 255°
2026-05-05 12:22 -23.33351 -46.09712 7710 ft 228 kts 254°
2026-05-05 12:23 -23.33777 -46.11382 7698 ft 228 kts 254°
2026-05-05 12:23 -23.34212 -46.13054 7680 ft 227 kts 253°
2026-05-05 12:23 -23.34646 -46.14698 7652 ft 227 kts 253°
2026-05-05 12:23 -23.35079 -46.16324 7624 ft 219 kts 253°
2026-05-05 12:24 -23.35504 -46.17906 7522 ft 218 kts 253°
2026-05-05 12:24 -23.35933 -46.19493 7252 ft 216 kts 253°
2026-05-05 12:24 -23.36346 -46.21016 6967 ft 205 kts 253°
2026-05-05 12:24 -23.36744 -46.22475 6691 ft 195 kts 254°
2026-05-05 12:25 -23.37112 -46.23827 6439 ft 186 kts 254°
2026-05-05 12:25 -23.37475 -46.25159 6193 ft 179 kts 255°
2026-05-05 12:25 -23.37818 -46.26415 5986 ft 162 kts 255°
2026-05-05 12:25 -23.38126 -46.27545 5727 ft 152 kts 254°
2026-05-05 12:26 -23.38431 -46.28669 5576 ft 159 kts 255°
2026-05-05 12:26 -23.38753 -46.29852 5391 ft 162 kts 254°
2026-05-05 12:26 -23.39070 -46.31022 5168 ft 159 kts 253°
2026-05-05 12:26 -23.39384 -46.32173 4960 ft 158 kts 256°
2026-05-05 12:27 -23.39695 -46.33319 4757 ft 158 kts 255°
2026-05-05 12:27 -23.40005 -46.34462 4551 ft 158 kts 253°
2026-05-05 12:27 -23.40319 -46.35611 4326 ft 158 kts 253°
2026-05-05 12:27 -23.40633 -46.36763 4127 ft 157 kts 254°
2026-05-05 12:28 -23.40943 -46.37906 3908 ft 158 kts 253°
2026-05-05 12:28 -23.41253 -46.39046 3707 ft 157 kts 254°
2026-05-05 12:28 -23.41564 -46.40185 3507 ft 156 kts 254°
2026-05-05 12:28 -23.41875 -46.41333 3307 ft 157 kts 254°
2026-05-05 12:29 -23.42188 -46.42479 3098 ft 160 kts 253°
2026-05-05 12:29 -23.42512 -46.43644 2931 ft 163 kts 253°
2026-05-05 12:29 -23.42828 -46.44801 2680 ft 157 kts 254°
2026-05-05 12:29 -23.43139 -46.45956 2486 ft 160 kts 253°
2026-05-05 12:30 -23.43438 -46.47068 2467 ft 124 kts 252°
2026-05-05 12:30 -23.43573 -46.47567 2471 ft 53 kts 253°
2026-05-05 12:30 -23.43657 -46.47878 2470 ft 19 kts 253°
2026-05-05 12:30 -23.43699 -46.48027 2469 ft 21 kts 253°
2026-05-05 12:31 -23.43730 -46.48182 2466 ft 19 kts 279°
2026-05-05 12:31 -23.43625 -46.48264 2462 ft 21 kts 344°
2026-05-05 12:31 -23.43475 -46.48310 2456 ft 20 kts 343°
2026-05-05 12:31 -23.43326 -46.48358 2452 ft 23 kts 343°
2026-05-05 12:32 -23.43185 -46.48402 2449 ft 5 kts 344°
2026-05-05 12:32 -23.43184 -46.48402 2448 ft 0 kts 344°
2026-05-05 12:32 -23.43170 -46.48407 2448 ft 5 kts 344°
2026-05-05 12:32 -23.43121 -46.48421 2448 ft 8 kts 345°
2026-05-05 12:33 -23.43065 -46.48378 2449 ft 13 kts 69°
2026-05-05 12:33 -23.43052 -46.48251 2450 ft 19 kts 85°
2026-05-05 12:33 -23.43034 -46.48135 2450 ft 15 kts 71°
2026-05-05 12:33 -23.42993 -46.48002 2450 ft 19 kts 74°
2026-05-05 12:34 -23.42966 -46.47891 2450 ft 13 kts 74°
2026-05-05 12:34 -23.42938 -46.47789 2450 ft 14 kts 73°
2026-05-05 12:34 -23.42907 -46.47678 2448 ft 16 kts 73°
2026-05-05 12:34 -23.42871 -46.47552 2447 ft 17 kts 72°
2026-05-05 12:35 -23.42839 -46.47435 2447 ft 11 kts 74°
2026-05-05 12:35 -23.42831 -46.47404 2447 ft 3 kts 74°
2026-05-05 12:35 -23.42829 -46.47400 2447 ft 0 kts 73°